[2024-11-28 00:00:00, 2024-11-28 23:59:59] previous next
| time | temperature | air pressure | humidity | solar radiation | wind speed |
|---|---|---|---|---|---|
| 2024-11-28 07:57:14 | 4.5 | 1015.8 | 99.0 | 9.0 | 0.0 |
| 2024-11-28 08:17:15 | 4.9 | 1016.1 | 99.0 | 16.5 | 0.0 |
| 2024-11-28 08:37:14 | 5.5 | 1016.8 | 99.0 | 19.7 | 1.4 |
| 2024-11-28 08:57:14 | 6.1 | 1016.8 | 98.0 | 21.8 | 1.3 |
| 2024-11-28 09:17:14 | 6.6 | 1016.8 | 97.0 | 23.8 | 3.1 |
| 2024-11-28 09:37:14 | 7.0 | 1017.4 | 96.0 | 25.5 | 1.5 |
| 2024-11-28 09:57:13 | 7.6 | 1017.8 | 95.0 | 30.0 | 1.3 |
| 2024-11-28 10:17:13 | 7.7 | 1017.8 | 94.0 | 29.5 | 0.8 |
| 2024-11-28 10:37:14 | 8.3 | 1018.1 | 92.0 | 31.7 | 4.1 |
| 2024-11-28 10:57:14 | 8.7 | 1018.1 | 90.0 | 32.6 | 1.8 |
| 2024-11-28 11:17:13 | 8.9 | 1018.1 | 88.0 | 92.3 | 1.7 |
| 2024-11-28 11:37:14 | 9.2 | 1018.1 | 86.0 | 137.3 | 2.0 |
| 2024-11-28 11:57:13 | 9.7 | 1018.5 | 84.0 | 177.7 | 1.8 |
| 2024-11-28 12:17:14 | 9.8 | 1018.5 | 83.0 | 58.4 | 1.3 |
| 2024-11-28 12:37:13 | 9.9 | 1018.5 | 82.0 | 215.3 | 1.8 |
| 2024-11-28 12:57:15 | 10.1 | 1018.5 | 81.0 | 82.0 | 1.5 |
| 2024-11-28 13:18:24 | 10.0 | 1018.8 | 79.0 | 161.1 | 2.2 |
| 2024-11-28 13:38:49 | 10.3 | 1018.8 | 77.0 | 80.5 | 0.8 |
| 2024-11-28 14:21:32 | 9.6 | 1019.5 | 80.0 | 104.7 | 0.0 |
CSV export: /station/IWELLEN5/data?period=20241128T000000/20241128T235959&format=csv&tz=GMT